sat.trackr.live / text

‹ back to catalog

STARLINK-31247

NORAD 59206 · 2024-046F

PAYLOAD ACTIVE UNKNOWN

§ Identity

Operator
Country
US
Launch date
2024-03-11
Launch site
AFWTR
Launch vehicle
Mass (kg)
RCS (m²)

Purposes: comms

External: N2YO · Heavens-Above · Gunter

§ Orbital elements

Epoch: 2026-05-25T00:23:11.412384Z

Period
94.11 min
Inclination
53.1593°
Eccentricity
0.0001474
Mean motion
15.30177368 rev/d
Perigee alt
474.3 km
Apogee alt
476.3 km
Semi-major
6,853.4 km
B*
-1.9179e-5
RAAN
160.9315°
Arg perigee
83.0607°
Mean anomaly
277.0562°
Rev number
12,473

§ Raw data

STARLINK-312471 59206U 24046F   26145.01610431 -.00000927  00000+0 -19179-4 0  99922 59206  53.1593 160.9315 0001474  83.0607 277.0562 15.30177368124732

JSON: /api/v1/satellites/59206 · /tle

For live sub-satellite position, see the globe view (requires WebGL).

§ Visibility from observer

Set your observer location to see the next 7 days of passes ≥ 10°. The values pass through the URL so the page stays shareable.

No JS? Fill the form by hand. The geolocation button needs JavaScript.